Regional Weather Roundup
Issued by NWS

Home | Current Version | Previous Version | Graphics & Text | Print | Product List | Glossary On
Versions: 1 2 3 4 5 6 7 8 9 10 11 12 13 14 15 16 17 18 19 20 21 22 23 24 25 26 27 28 29 30 31 32 33 34 35 36 37 38 39 40 41 42 43 44 45 46 47 48 49 50
000
ASUS45 KBOU 300907
RWRCO

WEATHER ROUNDUP FOR COLORADO
NATIONAL WEATHER SERVICE DENVER/BOULDER CO
300 AM MDT WED JUL 30 2014

NOTE: "FAIR" INDICATES FEW OR NO CLOUDS BELOW 12000 FEET WITH NO
SIGNIFICANT WEATHER AND/OR OBSTRUCTIONS TO VISIBILITY.

COZ001>005-013-030-031-301000-
...NORTHWEST COLORADO...

CITY           SKY/WX    TMP DP  RH WIND       PRES   REMARKS
CRAIG          CLOUDY    54  32  43 W3        30.27S
HAYDEN         CLOUDY    57  54  88 E5        30.28F
MEEKER         MOCLDY    55  53  93 E3        30.29S
MOUNT WERNER   NOT AVBL
STEAMBOAT SPGS CLOUDY    55  54  99 CALM      30.31S
WALDEN         CLOUDY    54  50  87 E5        30.36S
$$

COZ006>008-011-301000-
...WEST CENTRAL VALLEYS...

CITY           SKY/WX    TMP DP  RH WIND       PRES   REMARKS
GRAND JUNCTION MOCLDY    61  58  90 CALM      30.19S
MONTROSE       PTCLDY    60  56  86 S3        30.26F
EAGLE          CLOUDY    57  57 100 CALM      30.31S
RIFLE          CLOUDY    60  57  89 CALM      30.24F
DELTA          PTCLDY    64  58  81 CALM      30.23S
NUCLA          MOCLDY    61  57  88 N3        30.28S
$$

COZ017>023-064>068-301000-
...SOUTHWEST COLORADO...

CITY           SKY/WX    TMP DP  RH WIND       PRES   REMARKS
DURANGO        CLOUDY    59  52  77 N6        30.27S
CORTEZ         CLOUDY    62  56  80 E3        30.23F
PAGOSA SPRINGS CLOUDY    56  53  88 CALM      30.34S
TELLURIDE      CLOUDY    54  46  76 CALM      30.43F
WOLF CREEK PAS NOT AVBL
$$

COZ009-010-012-014-032>034-037-058>063-301000-
...CENTRAL COLORADO...

CITY           SKY/WX    TMP DP  RH WIND       PRES   REMARKS
ASPEN          CLOUDY    54  51  90 N5        30.35F
BUENA VISTA    RAIN      56  49  80 CALM      30.35F
COPPER MTN     CLOUDY    45  41  87 S8        30.59F HAZE
BERTHOUD PASS  DRIZZLE   36  32  87 CALM      30.64S
COTTONWOOD PAS DRIZZLE   54  43  66 W6        30.46F
GUNNISON       MOCLDY    54  48  82 CALM      30.39S
KREMMLING      CLOUDY    55  52  88 CALM      30.34F
LEADVILLE      CLOUDY    47  43  86 N6        30.46F
MONARCH PASS   CLOUDY    41  37  87 W6        30.70R
SALIDA         CLOUDY    56  54  91 CALM      30.40S
SUNLIGHT       CLOUDY    50  43  76 CALM      30.54F
WILKERSON PASS CLOUDY    45  43  93 N6        30.57F FOG
$$

COZ069>075-301000-
...SAN LUIS VALLEY/SANGRE DE CRISTO MOUNTAINS...

CITY           SKY/WX    TMP DP  RH WIND       PRES   REMARKS
ALAMOSA        PTCLDY    53  51  93 SW6       30.33R
LA VETA PASS   MOCLDY    46  45  93 SW3       30.48S
SAGUACHE       MOCLDY    54  46  76 N9G18     30.36S
$$

COZ035-036-038>040-301000-
...NORTHERN COLORADO FRONT RANGE...

CITY           SKY/WX    TMP DP  RH WIND       PRES   REMARKS
DENVER INTL AP CLOUDY    58  57  97 NE10      30.26S
DMNS CITY PARK   N/A     58  57  97 NE3       30.26S
AURORA         CLOUDY    57  57 100 NE3       30.27S
FRONT RANGE AP DRIZZLE   59  59 100 E10       30.27S
ERIE MUNI ARPT RAIN      59  58  97 NE7       30.26S
BOULDER MUN AP CLOUDY    59  59 100 MISG        N/A
CENTENNIAL     LGT RAIN  58  56  93 N7        30.27S
BROOMFIELD     LGT RAIN  57  57 100 NW5       30.29S
FORT COLLINS   CLOUDY    59  57  94 NE8       30.29R
LONGMONT       LGT RAIN  61  59  94 NE5       30.29S
$$

COZ041-046-047-076>085-087-088-301000-
...PIKES PEAK/PALMER DIVIDE AND SOUTHERN FOOTHILLS...

CITY           SKY/WX    TMP DP  RH WIND       PRES   REMARKS
COLO. SPRINGS  MOCLDY    60  56  86 CALM      30.27F
A. F. ACADEMY  DRIZZLE   57  57 100 N6        30.28F
ELLICOTT       CLOUDY    58  56  93 NE9       30.25F
FALCON         CLOUDY    56  55  96 NE8       30.31F
FORT CARSON    CLOUDY    60  59  97 N6        30.25S
LIMON          CLOUDY    58  56  93 NE5       30.23F
MONUMENT HILL  RAIN      54  54 100 NE3       30.31S
TRINIDAD       CLOUDY    63  59  87 NW7       30.22S
$$

COZ042>045-048>051-090-091-301000-
...NORTHEAST COLORADO...

CITY           SKY/WX    TMP DP  RH WIND       PRES   REMARKS
GREELEY ARPT   NOT AVBL
AKRON          CLOUDY    60  59  96 NE13      30.23F
BURLINGTON     CLOUDY    61  59  93 NE10      30.17R
WRAY             N/A    N/A N/A N/A NE8       30.18F
STERLING       CLOUDY    64  63  94 NE5       30.21F
HOLYOKE        CLOUDY    63  61  94 E8        30.21S
FORT MORGAN    CLOUDY    61  58  92 NE8       30.24F
$$

COZ086-089-092>099-301000-
...SOUTHEAST COLORADO...

CITY           SKY/WX    TMP DP  RH WIND       PRES   REMARKS
PUEBLO         CLOUDY    64  61  90 NE9       30.19S
LA JUNTA       LGT RAIN  63  61  93 NE14      30.14S
LAMAR          LGT RAIN  63  61  93 NE14      30.08F
SPRINGFIELD      N/A     63  61  93 NW15      30.08R
$$



USA.gov is the U.S. government's official web portal to all federal, state and local government web resources and services.